User: anonymous   Login
Location: Chenango Forks
(42.2242°N, 75.8278°W)
Time: 12:26:00
(UTC-04:00)
Language:

Okean 3 Rocket - Orbit

View from above orbital plane
View from above orbital plane
View from above satellite
View from above satellite

Ground track
Ground track

The orbit data is extracted from the following two-line orbital elements,

1 21398U 91039B   15142.31555666  .00000286  00000-0  34969-4 0  9996
2 21398 082.5243 210.6428 0022579 140.2422 287.8710 14.79469145291995
Epoch (UTC): 22 May 2015 07:34:24
Eccentricity: 0.0022579
inclination: 82.5243°
perigee height: 615 km
apogee height: 647 km
right ascension of ascending node: 210.6428°
argument of perigee: 140.2422°
revolutions per day: 14.79469145
mean anomaly at epoch: 287.8710°
orbit number at epoch: 29199

The dashed part of the orbit path shows where the satellite is in the earth's shadow,  

DLR